Cross City, FL

3:34 PM EST on December 05, 2019 (GMT -0500)
Cross City

Weather History for KCTY - October, 2019

Change the Weather History Date:

Thursday, October 31, 2019

  Actual Average Record
Temperature  
Mean Temperature 75 °F 66 °F  
Max Temperature 88 °F 80 °F 87 °F (2015)
Min Temperature 61 °F 53 °F 37 °F (2017)
Degree Days  
Heating Degree Days 0    
Month to date heating degree days 4  
Since 1 July heating degree days 4  
Cooling Degree Days 10    
Month to date cooling degree days 346  
Year to date cooling degree days 3103  
Growing Degree Days 26 (Base 50)    
Moisture  
Dew Point 73 °F    
Average Humidity 88    
Maximum Humidity 100    
Minimum Humidity 60    
Precipitation  
Precipitation 0.01 in 0.08 in 0.07 in (2011)
Month to date precipitation 3.02 3.40  
Year to date precipitation 50.49 43.23  
Sea Level Pressure  
Sea Level Pressure 30.01 in    
Wind  
Wind Speed 7 mph (SW)    
Max Wind Speed 15 mph    
Max Gust Speed 26 mph    
Visibility 9 miles    
Events Rain    
T = Trace of Precipitation, MM = Missing Value Source: NWS Daily Summary

Daily Weather History Graph

Daily Weather History Graph

Search for Another Location

Airport or City:

Astronomy

Oct. 31, 2019 Rise Set
Actual Time 7:44 AM EDT 6:46 PM EDT
Civil Twilight 7:20 AM EDT 7:11 PM EDT
Nautical Twilight 6:52 AM EDT 7:39 PM EDT
Astronomical Twilight 6:24 AM EDT 8:07 PM EDT
Moon 11:20 AM EDT (10/31) 9:54 PM EDT (10/31)
Length of Visible Light 11h 51m
Length of Day
11h 01m
Waxing Crescent, 15% of the Moon is Illuminated
Oct 31
Waxing Crescent
Nov 4
First Quarter
Nov 12
Full
Nov 19
Last Quarter
Nov 26
New

Hourly Weather History & Observations

Time (EDT) Temp. Heat Index Dew Point Humidity Pressure Visibility Wind Dir Wind Speed Gust Speed Precip Events Conditions
12:15 AM 70.5 °F - 69.4 °F 96% 30.04 in 10.0 mi Calm Calm - N/A   Unknown
12:35 AM 70.2 °F - 69.1 °F 96% 30.04 in 10.0 mi Calm Calm - N/A   Unknown
12:55 AM 70.3 °F - 69.4 °F 97% 30.03 in 10.0 mi Calm Calm - N/A   Unknown
1:15 AM 70.2 °F - 69.4 °F 98% 30.03 in 7.0 mi Calm Calm - N/A   Unknown
1:35 AM 70.0 °F - 69.4 °F 98% 30.03 in 10.0 mi Calm Calm - N/A   Unknown
1:55 AM 70.0 °F - 69.4 °F 98% 30.02 in 7.0 mi East 3.5 mph - N/A   Unknown
2:15 AM 71.2 °F - 70.5 °F 98% 30.02 in 10.0 mi Calm Calm - N/A   Unknown
2:35 AM 70.7 °F - 70.0 °F 98% 30.01 in 10.0 mi Calm Calm - N/A   Unknown
2:55 AM 69.3 °F - 68.4 °F 97% 30.01 in 10.0 mi Calm Calm - N/A   Unknown
3:15 AM 70.3 °F - 69.1 °F 96% 30.00 in 10.0 mi Calm Calm - N/A   Unknown
3:55 AM 71.2 °F - 70.2 °F 96% 30.00 in 5.0 mi Calm Calm - N/A   Mist
4:15 AM 71.6 °F - 70.7 °F 97% 29.99 in 5.0 mi Calm Calm - N/A   Mist
4:35 AM 72.1 °F - 71.4 °F 98% 30.00 in 10.0 mi Calm Calm - N/A   Unknown
4:55 AM 72.0 °F - 71.1 °F 97% 30.00 in 10.0 mi Calm Calm - N/A   Unknown
5:15 AM 71.2 °F - 70.5 °F 98% 30.00 in 7.0 mi Calm Calm - N/A   Unknown
5:35 AM 69.6 °F - 68.9 °F 98% 30.00 in 10.0 mi Calm Calm - N/A   Unknown
5:55 AM 69.4 °F - 68.9 °F 98% 30.01 in 7.0 mi Calm Calm - N/A   Mist
6:15 AM 69.3 °F - 68.5 °F 98% 30.01 in 10.0 mi Calm Calm - N/A   Unknown
6:35 AM 69.3 °F - 68.5 °F 98% 30.01 in 5.0 mi Calm Calm - N/A   Mist
6:55 AM 69.1 °F - 68.5 °F 98% 30.01 in 7.0 mi Calm Calm - N/A   Mist
7:15 AM 70.3 °F - 70.0 °F 99% 30.01 in 7.0 mi SSE 3.5 mph - N/A   Mist
7:35 AM 72.1 °F - 71.8 °F 99% 30.01 in 4.0 mi SSE 3.5 mph - N/A   Mist
7:55 AM 72.3 °F - 72.1 °F 99% 30.01 in 4.0 mi SSE 3.5 mph - N/A   Mist
8:15 AM 72.5 °F - 72.3 °F 99% 30.02 in 5.0 mi South 3.5 mph - N/A   Mist
8:35 AM 73.4 °F - 73.0 °F 99% 30.02 in 7.0 mi SSE 4.6 mph - N/A   Mist
8:55 AM 74.8 °F - 74.1 °F 98% 30.03 in - South 4.6 mph - N/A   Unknown
9:15 AM 76.5 °F - 74.8 °F 95% 30.03 in 10.0 mi South 5.8 mph - N/A   Unknown
9:35 AM 78.4 °F - 75.9 °F 92% 30.03 in 10.0 mi SSE 6.9 mph - N/A   Unknown
9:55 AM 80.2 °F 86.0 °F 76.3 °F 88% 30.04 in 10.0 mi South 10.4 mph - N/A   Unknown
10:15 AM 81.1 °F 88.0 °F 76.6 °F 86% 30.04 in 10.0 mi South 10.4 mph - N/A   Unknown
10:35 AM 81.9 °F 89.5 °F 76.5 °F 84% 30.04 in 10.0 mi South 10.4 mph - N/A   Unknown
10:55 AM 83.7 °F 93.1 °F 76.8 °F 80% 30.04 in 10.0 mi South 10.4 mph - N/A   Unknown
11:15 AM 85.1 °F 94.9 °F 76.3 °F 75% 30.04 in 10.0 mi SW 9.2 mph - N/A   Unknown
11:35 AM 83.5 °F 91.6 °F 75.7 °F 77% 30.05 in 10.0 mi SSW 9.2 mph - N/A   Unknown
11:55 AM 85.6 °F 94.6 °F 75.2 °F 71% 30.04 in 10.0 mi SW 11.5 mph - N/A   Unknown
12:15 PM 85.5 °F 94.6 °F 75.4 °F 72% 30.04 in 10.0 mi SSW 12.7 mph - N/A   Unknown
12:35 PM 85.8 °F 93.8 °F 74.1 °F 68% 30.04 in 10.0 mi SSW 10.4 mph - N/A   Unknown
12:55 PM 86.7 °F 95.0 °F 73.9 °F 66% 30.03 in 10.0 mi SSW 13.8 mph - N/A   Unknown
1:35 PM 86.4 °F 95.1 °F 74.7 °F 68% 30.02 in 10.0 mi SSW 11.5 mph - N/A   Unknown
1:55 PM 86.5 °F 95.9 °F 75.4 °F 69% 30.01 in 10.0 mi SW 12.7 mph 16.1 mph N/A   Unknown
2:15 PM 86.5 °F 95.5 °F 74.8 °F 68% 29.99 in 10.0 mi SSW 13.8 mph 19.6 mph N/A   Unknown
2:35 PM 85.3 °F 93.0 °F 74.1 °F 69% 29.99 in 10.0 mi SW 11.5 mph - N/A   Unknown
2:55 PM 86.0 °F 94.2 °F 74.1 °F 68% 29.99 in 10.0 mi SW 15.0 mph - N/A   Unknown
3:15 PM 85.6 °F 93.8 °F 74.3 °F 69% 29.98 in 10.0 mi SW 12.7 mph - N/A   Unknown
3:35 PM 85.8 °F 94.6 °F 75.0 °F 70% 29.98 in 10.0 mi WSW 11.5 mph - N/A   Unknown
3:55 PM 86.2 °F 94.2 °F 74.1 °F 67% 29.97 in 10.0 mi SSW 13.8 mph 18.4 mph N/A   Unknown
4:15 PM 84.4 °F 92.0 °F 74.5 °F 72% 29.97 in 10.0 mi SW 12.7 mph - N/A   Unknown
4:35 PM 83.7 °F 91.0 °F 74.7 °F 74% 29.97 in 10.0 mi SW 10.4 mph - N/A   Unknown
4:55 PM 84.4 °F 92.4 °F 74.8 °F 73% 29.98 in 10.0 mi WSW 15.0 mph 19.6 mph N/A   Unknown
5:15 PM 83.1 °F 90.4 °F 74.7 °F 76% 29.98 in 10.0 mi WSW 9.2 mph - N/A   Unknown
5:35 PM 83.5 °F 91.2 °F 75.2 °F 76% 29.98 in 10.0 mi WSW 8.1 mph - N/A   Unknown
5:55 PM 81.9 °F 88.5 °F 75.2 °F 80% 29.99 in 10.0 mi SW 9.2 mph - N/A   Unknown
6:15 PM 81.3 °F 87.6 °F 75.2 °F 82% 29.98 in 10.0 mi SW 10.4 mph - N/A   Unknown
6:35 PM 80.8 °F 86.7 °F 75.6 °F 84% 29.99 in 10.0 mi SW 10.4 mph - N/A   Unknown
6:55 PM 80.2 °F 85.7 °F 75.6 °F 86% 29.99 in 10.0 mi SW 8.1 mph - N/A   Unknown
7:15 PM 79.7 °F - 75.7 °F 88% 30.00 in 10.0 mi SW 6.9 mph - N/A   Unknown
7:35 PM 79.2 °F - 76.1 °F 90% 30.00 in - SSW 6.9 mph - N/A   Unknown
7:55 PM 78.8 °F - 76.1 °F 91% 30.00 in 10.0 mi SW 5.8 mph - N/A   Unknown
8:15 PM 77.7 °F - 76.1 °F 95% 30.00 in 10.0 mi SSW 5.8 mph - N/A   Unknown
8:35 PM 77.5 °F - 76.3 °F 96% 30.00 in 10.0 mi South 5.8 mph - N/A   Unknown
8:55 PM 77.0 °F - 75.0 °F 94% 30.01 in 7.0 mi SSW 8.1 mph 19.6 mph 0.01 in Rain Light Rain
9:15 PM 75.7 °F - 73.6 °F 93% 30.01 in 10.0 mi West 3.5 mph - N/A   Unknown
9:35 PM 75.0 °F - 73.8 °F 96% 30.02 in 10.0 mi West 5.8 mph - N/A   Unknown
9:55 PM 75.0 °F - 74.1 °F 97% 30.03 in 10.0 mi West 5.8 mph - N/A   Unknown
10:15 PM 74.5 °F - 73.2 °F 96% 30.04 in 10.0 mi NNW 8.1 mph - N/A   Unknown
10:35 PM 73.8 °F - 72.0 °F 94% 30.03 in 10.0 mi NNW 8.1 mph - N/A   Unknown
10:55 PM 69.8 °F - 68.0 °F 94% 30.05 in 10.0 mi NNW 11.5 mph 26.5 mph N/A   Unknown
11:15 PM 65.7 °F - 64.0 °F 94% 30.06 in 10.0 mi NNW 13.8 mph 18.4 mph N/A   Unknown
11:35 PM 64.9 °F - 63.0 °F 93% 30.07 in 10.0 mi North 18.4 mph 23.0 mph N/A   Unknown
11:55 PM 63.9 °F - 61.7 °F 93% 30.08 in 10.0 mi NNW 11.5 mph 19.6 mph N/A   Unknown